Regional Weather Roundup
Issued by NWS Burlington, VT

Home | Current Version | Previous Version | Text Only | Print | Product List | Glossary On
Versions: 1 2 3 4 5 6 7 8 9 10 11 12 13 14 15 16 17 18 19 20 21 22 23 24 25 26 27 28 29 30 31 32 33 34 35 36 37 38 39 40 41 42 43 44 45 46 47 48 49 50
959
ASUS41 KBTV 310630
RWRBTV
VERMONT REGIONAL WEATHER ROUNDUP
NATIONAL WEATHER SERVICE BURLINGTON VT
200 AM EDT TUE MAY 31 2016

NOTE: "FAIR" INDICATES FEW OR NO CLOUDS BELOW 12,000 FEET WITH NO
SIGNIFICANT WEATHER AND/OR OBSTRUCTIONS TO VISIBILITY.

* THESE REPORTS ARE NOT UNDER NWS QUALITY CONTROL AND/OR DO NOT
  REPORT WEATHER SUCH AS PRECIPITATION AND FOG.

VTZ001>019-310700-
_____VERMONT_____


CITY           SKY/WX    TMP DP  RH WIND       PRES   REMARKS
BURLINGTON     MOCLDY    68  54  60 W3        29.86S
6HR MIN TEMP:  68; 6HR MAX TEMP:  81;

MONTPELIER     FAIR      68  52  56 W7        29.91F
6HR MIN TEMP:  68; 6HR MAX TEMP:  78;

MORRISVILLE    MOCLDY    61  55  81 SW3       29.87F
6HR MIN TEMP:  58; 6HR MAX TEMP:  77;

ST. JOHNSBURY*   N/A     61  58  90 MISG      29.84F
6HR MIN TEMP:  61; 6HR MAX TEMP:  79;

LYNDONVILLE*   FAIR      64  52  65 CALM      29.88F
6HR MIN TEMP:  61; 6HR MAX TEMP:  74;

RUTLAND*       FAIR      65  60  84 E3        29.90S
6HR MIN TEMP:  65; 6HR MAX TEMP:  79;

SPRINGFIELD    FAIR      67  60  78 SW5       29.88S
6HR MIN TEMP:  65; 6HR MAX TEMP:  76;

HIGHGATE*      FAIR      67  56  68 S6        29.84S
6HR MIN TEMP:  65; 6HR MAX TEMP:  77;

NEWPORT*       FAIR      66  55  66 W9        29.85F
6HR MIN TEMP:  66; 6HR MAX TEMP:  75;

BENNINGTON     MOCLDY    61  60  97 CALM      29.92F
6HR MIN TEMP:  61; 6HR MAX TEMP:  73;

SUTTON*          N/A     59 N/A N/A MISG        N/A
GALLUP MILLS*    N/A     54 N/A N/A MISG        N/A
UNION VILLAGE*   N/A     61 N/A N/A MISG        N/A
MT. MANSFIELD*   N/A     55 N/A N/A NW33        N/A

_____LAKE CHAMPLAIN_____


CITY           SKY/WX    TMP DP  RH WIND       PRES   REMARKS

$$

NYZ007-026>031-035-052-083-087-310700-
_____NORTHERN NEW YORK_____


CITY           SKY/WX    TMP DP  RH WIND       PRES   REMARKS
PLATTSBURGH    MOCLDY    66  57  72 SW5       29.86R
6HR MIN TEMP:  65; 6HR MAX TEMP:  80;

SARANAC LAKE   CLEAR     60  49  66 SW8       29.92S
6HR MIN TEMP:  60; 6HR MAX TEMP:  72;

MASSENA        CLEAR     59  52  77 SW7       29.87S
6HR MIN TEMP:  58; 6HR MAX TEMP:  77;

OGDENSBURG*    CLEAR     61  52  72 SW7       29.89S
STARK FALLS*     N/A     32 N/A N/A W6          N/A  WCI  26
WATERTOWN      CLEAR     60  52  74 SW5       29.93S
6HR MIN TEMP:  60; 6HR MAX TEMP:  70;

ALBANY         CLOUDY    66  63  90 CALM      29.92S
6HR MIN TEMP:  64; 6HR MAX TEMP:  71; 6HR PCP: TRACE;

GLENS FALLS    PTCLDY    65  61  87 SW7       29.89S
6HR MIN TEMP:  64; 6HR MAX TEMP:  82;


$$
NHZ002-005-011-310700-
_____NEW HAMPSHIRE_____


CITY           SKY/WX    TMP DP  RH WIND       PRES   REMARKS
LEBANON        CLOUDY    65  60  84 S5        29.87R
6HR MIN TEMP:  65; 6HR MAX TEMP:  78;

MT WASHINGTON  FOG       45  45 100 W55         N/A  VSB 1/16WCI  32
6HR MIN TEMP:  45; 6HR MAX TEMP:  53;

PLYMOUTH       FAIR      62  61  96 CALM      29.84F FOG
6HR MIN TEMP:  63; 6HR MAX TEMP:  80;

WHITEFIELD     PTCLDY    60  56  86 CALM      29.87S
6HR MIN TEMP:  60; 6HR MAX TEMP:  78;


$$

_____REGIONAL QUEBEC LOCATIONS_____


CITY           SKY/WX    TMP DP  RH WIND       PRES   REMARKS
MONTREAL       PTCLDY    66  54  63 SW12      29.81S
QUEBEC CITY    CLEAR     63  59  88 W10       29.73S
SHERBROOKE     PTCLDY    66  57  72 SW7       29.81F

_____REGIONAL ONTARIO LOCATIONS_____


CITY           SKY/WX    TMP DP  RH WIND       PRES   REMARKS
OTTAWA         CLEAR     61  50  67 SW6       29.85F

______KEY______
VSB  - VISIBILITY IN MILES
WCI  - WIND CHILL INDEX
HX   - HEAT INDEX
$$
NNNN




USA.gov is the U.S. government's official web portal to all federal, state and local government web resources and services.